Current Version              Previous Version:    01  02  03  04  05  06  07  08  09  10  11  12  13  14  15  16  17  18  19  20  21  22  23  24  25  26  27  28  29  30  
   31  32  33  34  35  36  37  38  39  40  41  42  43  44  45  46  47  48  49  50  51  52  53  54  55  56  57  58  59  60  

[Printable]
593
ASUS44 KFWD 261202
RWRTX
NORTH TEXAS HOURLY WEATHER ROUNDUP
NATIONAL WEATHER SERVICE FORT WORTH TX
ISSUED BY NWS SHREVEPORT LA
600 AM CST WED NOV 26 2014

NOTE: "FAIR" INDICATES FEW OR NO CLOUDS BELOW 12,000 FEET WITH NO
SIGNIFICANT WEATHER AND/OR OBSTRUCTIONS TO VISIBILITY.

TXZ118-119-261300-
DALLAS/FORT WORTH METROPLEX

CITY           SKY/WX    TMP DP  RH WIND       PRES   REMARKS
DFW AIRPORT    CLEAR     39  29  67 S9        30.01F WCI  33
6HR MIN TEMP:  37; 6HR MAX TEMP:  42;

DALLAS LOVE    CLEAR     46  30  53 SW7       30.04S
6HR MIN TEMP:  43; 6HR MAX TEMP:  49;

FTW MEACHAM    CLEAR     45  28  51 SW7       30.02S
6HR MIN TEMP:  43; 6HR MAX TEMP:  49;

DAL-EXECUTIVE  CLEAR     51  25  36 VRB7      30.03R
6HR MIN TEMP:  49; 6HR MAX TEMP:  54;

FTW-ALLIANCE   PTCLDY    41  27  57 SW3       30.01S
6HR MIN TEMP:  40; 6HR MAX TEMP:  47;

FTW-NAS-JRB    CLEAR     51  25  36 SW7       30.07S
6HR MIN TEMP:  45; 6HR MAX TEMP:  52;

ARLINGTON      CLEAR     38  28  67 SE6       30.03S WCI  33
6HR MIN TEMP:  38; 6HR MAX TEMP:  46;

ADDISON        CLEAR     46  27  46 SW3       30.04S
$$

TXZ091>094-102>105-117-120-121-131>134-261300-
NORTH CENTRAL TEXAS

CITY           SKY/WX    TMP DP  RH WIND       PRES   REMARKS
SHRMAN/DENISON CLEAR     44  32  62 SW10      30.03R WCI  39
6HR MIN TEMP:  44; 6HR MAX TEMP:  50;

DENTON         CLEAR     39  28  64 CALM      30.02S
6HR MIN TEMP:  38; 6HR MAX TEMP:  44;

MCKINNEY       CLEAR     35  29  78 S7        30.03R WCI  29
6HR MIN TEMP:  33; 6HR MAX TEMP:  41;

TERRELL        CLEAR     40  31  70 S7        30.07R WCI  35
6HR MIN TEMP:  39; 6HR MAX TEMP:  44;

$$

TXZ083>090-098>101-113>116-127>130-139>142-154-155-261300-
WESTERN NORTH TEXAS

CITY           SKY/WX    TMP DP  RH WIND       PRES   REMARKS
WICHITA FALLS  CLEAR     40  27  59 W9        30.04R WCI  34
6HR MIN TEMP:  39; 6HR MAX TEMP:  46;

ABILENE        CLEAR     40  23  50 SW7       30.09R WCI  35
6HR MIN TEMP:  39; 6HR MAX TEMP:  47;

ABILENE-DYESS  CLEAR     48  19  30 W8        30.08R
6HR MIN TEMP:  47; 6HR MAX TEMP:  51;

MINERAL WELLS  CLEAR     43  27  53 SW8       30.03S WCI  38
6HR MIN TEMP:  36; 6HR MAX TEMP:  45;

STEPHENVILLE   CLEAR     45  26  46 SW6       30.10R
6HR MIN TEMP:  39; 6HR MAX TEMP:  47;

$$

TXZ143>147-156>162-174-175-261300-
CENTRAL TEXAS

CITY           SKY/WX    TMP DP  RH WIND       PRES   REMARKS
WACO           CLEAR     40  31  70 S9        30.11R WCI  34
6HR MIN TEMP:  38; 6HR MAX TEMP:  43;

WACO-MCGREGOR  CLEAR     39  27  60 SW8       30.12R WCI  34
6HR MIN TEMP:  39; 6HR MAX TEMP:  43;

CORSICANA      CLEAR     41  32  70 S9        30.10S WCI  35
6HR MIN TEMP:  40; 6HR MAX TEMP:  44;

TEMPLE         CLEAR     37  27  65 SE5       30.12R WCI  34
6HR MIN TEMP:  36; 6HR MAX TEMP:  43;

KILLEEN-GRAY   CLEAR     48  25  41 SW13      30.12S
6HR MIN TEMP:  46; 6HR MAX TEMP:  51;

KILLEEN-SKYLRK CLEAR     45  25  45 SW5       30.12R
6HR MIN TEMP:  39; 6HR MAX TEMP:  46;

FORT HOOD      CLEAR     47  27  45 S6        30.12R
6HR MIN TEMP:  42; 6HR MAX TEMP:  50;

$$

TXZ095>097-106>112-122>126-135>138-148>153-164>167-261300-
EAST TEXAS

CITY           SKY/WX    TMP DP  RH WIND       PRES   REMARKS
PARIS          CLEAR     39  30  70 S9        30.01F WCI  33
6HR MIN TEMP:  37; 6HR MAX TEMP:  43;

TYLER          CLEAR     43  32  65 S10       30.08F WCI  37
6HR MIN TEMP:  41; 6HR MAX TEMP:  44;

LONGVIEW       CLEAR     44  31  60 S10       30.09R WCI  39
6HR MIN TEMP:  42; 6HR MAX TEMP:  46;

JACKSONVILLE   CLEAR     43  32  65 S9        30.13R WCI  37
NACOGDOCHES    CLEAR     45  32  61 SW6       30.15R
6HR MIN TEMP:  36; 6HR MAX TEMP:  45;

LUFKIN         CLEAR     43  34  70 S6        30.16R WCI  39
6HR MIN TEMP:  40; 6HR MAX TEMP:  47;

$$

SUPPLEMENTAL OBSERVATIONS (CENTRAL)

CITY           SKY/WX    TMP DP  RH WIND       PRES   REMARKS
$$

SUPPLEMENTAL OBSERVATIONS (WEST)

CITY           SKY/WX    TMP DP  RH WIND       PRES   REMARKS
$$

SUPPLEMENTAL OBSERVATIONS (EAST)

CITY           SKY/WX    TMP DP  RH WIND       PRES   REMARKS
$$

SUPPLEMENTAL OBSERVATIONS ARE A COLLECTION OF AUTOMATED INSTRUMENTS
THAT ARE MAINTAINED BY A VARIETY OF FEDERAL AND STATE AGENCIES.
CERTAIN ELEMENTS...SUCH AS HUMIDITY VALUES AND SUSTAINED WIND
SPEEDS...MAY BE ESTIMATED.